Orbital Elements at Epoch 2459200.5 (2020-Dec-17.0) TDB
Reference: JPL 19 (heliocentric ecliptic J2000)
Element | Value | Uncertainty (1-sigma) | Units |
e | .2608048608755731 | 3.1018e-08 | |
a | 2.647584151320515 | 1.2526e-08 | au |
q | 1.957081335078996 | 8.2359e-08 | au |
i | 4.955157962137661 | 4.4613e-06 | deg |
node | 55.5271523806629 | 6.3021e-05 | deg |
peri | 18.87129387271792 | 6.4637e-05 | deg |
M | 33.67696621685335 | 1.4079e-05 | deg |
tp | 2459053.301445099417 (2020-Jul-22.80144510) | 6.0892e-05 | TDB |
period | 1573.522965904538 4.31 | 1.1167e-05 3.057e-08 | d yr |
n | .2287859839357695 | 1.6237e-09 | deg/d |
Q | 3.338086967562035 | 1.5793e-08 | au |
|
| | Orbit Determination Parameters
Additional Information
|